カタログに戻る

STARLINK-11295

運用中通信VLEO
NORAD 61536·PAYLOAD·🇺🇸 United States

打ち上げ Oct 15, 2024 から Vandenberg Space Force Base

Loading…

次のパス (今後24時間)

TLE

最新Source: CelesTrak SupGP

元期: Sep 15, 2026, 02:58 UTC

1 61536C 24184E   26258.12409722 -.00059089  00000+0 -48668-3 0  2585
2 61536  53.1576  22.3366 0001005  82.5225 193.6269 15.69741963    10

AllMySatでSTARLINK-11295をリアルタイム追跡

Download on the App Store